Change the Weather History Date:

Wednesday, June 26, 2013

  Actual Average (K1V4) Record (K1V4)
Temperature  
Mean Temperature 69 °F 68 °F  
Max Temperature 75 °F 80 °F 94 °F (1946)
Min Temperature 64 °F 57 °F 34 °F (1986)
Cooling Degree Days 4 4  
Month to date cooling degree days 71  
Year to date cooling degree days 89  
Since 1 June cooling degree days 71  
Growing Degree Days 19 (Base 50)    
Moisture  
Dew Point 63 °F    
Average Humidity 86    
Maximum Humidity 91    
Minimum Humidity 67    
Precipitation  
Precipitation 0.00 in 0.14 in 2.04 in (2006)
Month to date precipitation 3.47  
Year to date precipitation 16.88  
Sea Level Pressure  
Sea Level Pressure 29.82 in    
Wind  
Wind Speed 1 mph (South)    
Max Wind Speed 6 mph    
Max Gust Speed -    
Visibility 4 miles    
Events Fog , Rain    
T = Trace of Precipitation, MM = Missing Value Source: NWS Daily Summary

Daily Weather History Graph

Daily Weather History Graph

Search for Another Location

Airport or City:

Trip Planner

Search our weather history database for the weather conditions in past years. The results will help you decide how hot, cold, wet, or windy it might be!

Date:

Astronomy

Jun. 26, 2013 Rise Set
Actual Time 5:04 AM EDT 8:37 PM EDT
Civil Twilight 4:27 AM EDT 9:14 PM EDT
Nautical Twilight 3:38 AM EDT 10:02 PM EDT
Astronomical Twilight 2:35 AM EDT 11:06 PM EDT
Moon 10:47 PM EDT (6/26) 9:02 AM EDT (6/26)
Length of Visible Light 16h 46m
Length of Day
15h 32m
Waning Gibbous, 85% of the Moon is Illuminated
Jun 26
Waning Gibbous
Jun 30
Last Quarter
Jul 8
New
Jul 15
First Quarter
Jul 22
Full

Hourly Weather History & Observations

Time (EDT) Temp. Dew Point Humidity Pressure Visibility Wind Dir Wind Speed Gust Speed Precip Events Conditions
12:15 AM 65.3 °F 62.6 °F 91% 29.81 in 0.2 mi Calm Calm - N/A Fog Fog
12:35 AM 64.9 °F 62.2 °F 91% 29.81 in 0.2 mi Calm Calm - N/A Fog Fog
12:55 AM 64.9 °F 62.2 °F 91% 29.81 in 0.2 mi Calm Calm - N/A Fog Fog
1:15 AM 64.9 °F 62.2 °F 91% 29.81 in 0.2 mi Calm Calm - N/A Fog Fog
1:35 AM 64.9 °F 62.2 °F 91% 29.80 in 0.2 mi Calm Calm - N/A Fog Fog
1:55 AM 64.6 °F 61.9 °F 91% 29.80 in 0.2 mi Calm Calm - N/A Fog Fog
2:15 AM 64.6 °F 61.9 °F 91% 29.80 in 0.2 mi Calm Calm - N/A Fog Fog
2:35 AM 64.6 °F 61.9 °F 91% 29.80 in 0.2 mi Calm Calm - N/A Fog Fog
2:55 AM 64.8 °F 62.1 °F 91% 29.80 in 0.2 mi Calm Calm - N/A Fog Fog
3:15 AM 64.8 °F 62.1 °F 91% 29.79 in 0.2 mi Calm Calm - N/A Fog Fog
3:35 AM 64.8 °F 62.1 °F 91% 29.80 in 0.2 mi Calm Calm - N/A Fog Fog
3:55 AM 64.8 °F 62.1 °F 91% 29.79 in 0.2 mi Calm Calm - N/A Fog Fog
4:15 AM 64.8 °F 62.1 °F 91% 29.80 in 0.2 mi Calm Calm - N/A Fog Fog
4:35 AM 64.8 °F 62.1 °F 91% 29.80 in 0.2 mi Calm Calm - N/A Fog Fog
4:55 AM 64.8 °F 62.1 °F 91% 29.81 in 0.2 mi Calm Calm - N/A Fog Fog
5:15 AM 64.9 °F 62.2 °F 91% 29.80 in 0.2 mi Calm Calm - N/A Fog Fog
5:35 AM 64.9 °F 62.2 °F 91% 29.80 in 0.2 mi Calm Calm - N/A Fog Fog
5:55 AM 64.9 °F 62.2 °F 91% 29.81 in 0.2 mi Calm Calm - N/A Fog Fog
6:15 AM 64.9 °F 62.2 °F 91% 29.81 in 0.2 mi Calm Calm - N/A Fog Fog
6:35 AM 65.1 °F 62.4 °F 91% 29.80 in 0.2 mi Calm Calm - N/A Fog Fog
6:55 AM 65.3 °F 62.6 °F 91% 29.81 in 0.2 mi Calm Calm - N/A Fog Fog
7:15 AM 65.3 °F 62.6 °F 91% 29.81 in 0.2 mi Calm Calm - N/A Fog Fog
7:35 AM 64.9 °F 62.2 °F 91% 29.82 in 0.2 mi Calm Calm - N/A Fog Fog
7:55 AM 65.3 °F 62.6 °F 91% 29.83 in 0.2 mi Calm Calm - N/A Fog Fog
8:15 AM 65.3 °F 62.6 °F 91% 29.83 in 0.2 mi Calm Calm - N/A Rain Light Rain
8:35 AM 65.3 °F 62.6 °F 91% 29.84 in 0.2 mi Calm Calm - N/A   Drizzle
8:55 AM 65.5 °F 62.6 °F 90% 29.84 in 0.2 mi Calm Calm - N/A   Drizzle
9:15 AM 65.3 °F 62.6 °F 91% 29.83 in 0.2 mi Calm Calm - N/A   Light Drizzle
9:35 AM 65.5 °F 62.6 °F 90% 29.83 in 1.0 mi Calm Calm - N/A Rain Light Rain
9:55 AM 66.7 °F 63.9 °F 90% 29.83 in 4.0 mi Calm Calm - N/A   Mostly Cloudy
10:15 AM 67.1 °F 64.0 °F 90% 29.83 in 5.0 mi Calm Calm - N/A   Light Drizzle
10:55 AM 67.5 °F 64.6 °F 90% 29.83 in 5.0 mi Calm Calm - N/A   Overcast
11:15 AM 67.1 °F 64.2 °F 90% 29.83 in 4.0 mi Calm Calm - N/A Rain Light Rain
11:35 AM 67.3 °F 64.4 °F 90% 29.84 in 3.0 mi Calm Calm - N/A Rain Light Rain
11:55 AM 67.3 °F 64.4 °F 90% 29.84 in 2.0 mi Calm Calm - N/A Rain Light Rain
12:15 PM 67.6 °F 64.8 °F 90% 29.84 in 2.5 mi SSE 3.5 mph - N/A Rain Light Rain
12:35 PM 67.6 °F 64.8 °F 90% 29.83 in 2.0 mi SE 5.8 mph - N/A Rain Light Rain
12:55 PM 67.6 °F 64.8 °F 90% 29.83 in 3.0 mi SW 3.5 mph - N/A Rain Light Rain
1:15 PM 68.5 °F 65.7 °F 90% 29.84 in 3.0 mi Calm Calm - N/A   Overcast
1:35 PM 68.5 °F 65.7 °F 90% 29.84 in 4.0 mi Calm Calm - N/A   Overcast
1:55 PM 68.5 °F 65.7 °F 90% 29.84 in 4.0 mi Calm Calm - N/A   Scattered Clouds
2:15 PM 68.7 °F 65.7 °F 90% 29.83 in 4.0 mi Calm Calm - N/A Rain Light Rain
2:35 PM 68.5 °F 65.7 °F 90% 29.83 in 2.0 mi Calm Calm - N/A Rain Light Rain
2:55 PM 68.5 °F 65.7 °F 90% 29.83 in 5.0 mi Calm Calm - N/A   Overcast
3:15 PM 69.1 °F 66.2 °F 91% 29.83 in 3.0 mi SSW 5.8 mph - N/A   Overcast
3:35 PM 69.3 °F 66.4 °F 91% 29.81 in 0.8 mi SSE 4.6 mph - N/A   Overcast
3:55 PM 69.8 °F 67.1 °F 91% 29.81 in 7.0 mi SSE 3.5 mph - N/A   Scattered Clouds
4:15 PM 70.3 °F 67.5 °F 91% 29.82 in 10.0 mi Calm Calm - N/A   Scattered Clouds
4:35 PM 73.6 °F 66.4 °F 78% 29.82 in 10.0 mi Calm Calm - N/A   Scattered Clouds
4:55 PM 74.5 °F 63.3 °F 68% 29.82 in 10.0 mi Calm Calm - N/A   Scattered Clouds
5:15 PM 73.8 °F 63.9 °F 71% 29.83 in 10.0 mi Calm Calm - N/A   Mostly Cloudy
5:35 PM 73.8 °F 63.7 °F 71% 29.83 in 10.0 mi Calm Calm - N/A   Overcast
5:55 PM 73.8 °F 62.4 °F 68% 29.83 in 10.0 mi South 3.5 mph - N/A   Mostly Cloudy
6:15 PM 73.8 °F 63.1 °F 69% 29.82 in 10.0 mi SSE 4.6 mph - N/A   Scattered Clouds
6:35 PM 72.0 °F 62.8 °F 73% 29.83 in 10.0 mi SSE 3.5 mph - N/A   Scattered Clouds
6:55 PM 72.0 °F 62.4 °F 72% 29.84 in 10.0 mi South 4.6 mph - N/A   Overcast
7:15 PM 71.8 °F 61.7 °F 70% 29.84 in 10.0 mi South 5.8 mph - N/A   Overcast
7:35 PM 71.6 °F 60.3 °F 67% 29.84 in 10.0 mi South 4.6 mph - N/A   Mostly Cloudy
7:55 PM 70.5 °F 61.2 °F 72% 29.83 in 10.0 mi South 4.6 mph - N/A   Scattered Clouds
8:15 PM 69.3 °F 61.7 °F 77% 29.84 in 10.0 mi South 4.6 mph - N/A   Scattered Clouds
8:35 PM 68.5 °F 62.1 °F 80% 29.84 in 10.0 mi SSW 3.5 mph - N/A   Mostly Cloudy
8:55 PM 68.5 °F 62.1 °F 80% 29.84 in 10.0 mi Calm Calm - N/A   Mostly Cloudy
9:15 PM 68.4 °F 62.4 °F 81% 29.84 in 10.0 mi Calm Calm - N/A   Mostly Cloudy
9:35 PM 68.0 °F 62.2 °F 82% 29.86 in 10.0 mi Calm Calm - N/A   Mostly Cloudy
9:55 PM 67.8 °F 62.6 °F 83% 29.86 in 10.0 mi Calm Calm - N/A   Mostly Cloudy
10:15 PM 67.3 °F 62.6 °F 85% 29.86 in 10.0 mi SSE 3.5 mph - N/A   Mostly Cloudy
10:35 PM 67.5 °F 63.3 °F 87% 29.85 in 10.0 mi ESE 4.6 mph - N/A   Overcast
10:55 PM 66.7 °F 63.1 °F 88% 29.84 in 10.0 mi SE 3.5 mph - N/A   Overcast
11:15 PM 66.7 °F 63.5 °F 89% 29.84 in 7.0 mi South 3.5 mph - N/A   Mostly Cloudy
11:35 PM 66.7 °F 63.5 °F 89% 29.84 in 7.0 mi Calm Calm - N/A   Mostly Cloudy
11:55 PM 66.7 °F 63.5 °F 89% 29.84 in 10.0 mi Calm Calm - N/A   Mostly Cloudy